TimePST,TemperatureF,Dew PointF,Humidity,Sea Level PressureIn,VisibilityMPH,Wind Direction,Wind SpeedMPH,Gust SpeedMPH,PrecipitationIn,Events,Conditions,WindDirDegrees,DateUTC
12:53 AM,51.1,36.0,56,29.86,10.0,Calm,Calm,-,N/A,,Clear,0,2013-12-03 08:53:00
1:53 AM,50.0,36.0,59,29.85,10.0,Calm,Calm,-,N/A,,Clear,0,2013-12-03 09:53:00
2:53 AM,48.9,35.1,59,29.84,10.0,Calm,Calm,-,N/A,,Clear,0,2013-12-03 10:53:00
3:53 AM,48.0,35.1,61,29.83,10.0,Calm,Calm,-,N/A,,Clear,0,2013-12-03 11:53:00
4:53 AM,46.9,35.1,63,29.83,10.0,Calm,Calm,-,N/A,,Clear,0,2013-12-03 12:53:00
5:53 AM,46.9,35.1,63,29.81,10.0,Calm,Calm,-,N/A,,Clear,0,2013-12-03 13:53:00
6:53 AM,46.9,34.0,61,29.82,10.0,Calm,Calm,-,N/A,,Clear,0,2013-12-03 14:53:00
7:53 AM,52.0,34.0,50,29.84,10.0,Calm,Calm,-,N/A,,Clear,0,2013-12-03 15:53:00
8:53 AM,55.9,36.0,47,29.84,10.0,Calm,Calm,-,N/A,,Clear,0,2013-12-03 16:53:00
9:53 AM,61.0,48.0,62,29.84,10.0,SSE,13.8,-,N/A,,Clear,150,2013-12-03 17:53:00
10:53 AM,63.0,48.0,58,29.82,10.0,SSE,10.4,-,N/A,,Clear,150,2013-12-03 18:53:00
11:53 AM,64.0,46.9,54,29.78,10.0,SE,11.5,17.3,N/A,,Clear,140,2013-12-03 19:53:00
12:53 PM,64.9,48.0,54,29.75,10.0,SSE,9.2,-,N/A,,Clear,150,2013-12-03 20:53:00
1:53 PM,64.9,46.9,52,29.73,10.0,SSE,11.5,-,N/A,,Partly Cloudy,160,2013-12-03 21:53:00
2:53 PM,64.0,48.0,56,29.73,10.0,SE,10.4,-,N/A,,Mostly Cloudy,140,2013-12-03 22:53:00
3:53 PM,63.0,51.1,65,29.73,10.0,South,10.4,-,N/A,,Mostly Cloudy,180,2013-12-03 23:53:00
4:53 PM,61.0,51.1,70,29.72,10.0,South,6.9,-,N/A,,Overcast,190,2013-12-04 00:53:00
5:53 PM,60.1,50.0,69,29.72,10.0,South,6.9,-,N/A,,Overcast,180,2013-12-04 01:53:00
6:53 PM,60.1,50.0,69,29.73,10.0,South,6.9,-,N/A,,Overcast,180,2013-12-04 02:53:00
7:00 PM,60.8,50.0,68,29.75,10.0,SSE,9.2,-,N/A,,Overcast,160,2013-12-04 03:00:00
7:53 PM,60.1,51.1,72,29.73,10.0,SSE,10.4,-,N/A,,Overcast,160,2013-12-04 03:53:00
8:48 PM,57.2,48.2,72,29.75,10.0,SSE,8.1,-,N/A,,Scattered Clouds,150,2013-12-04 04:48:00
8:53 PM,57.9,48.9,72,29.72,10.0,SSE,8.1,-,N/A,,Mostly Cloudy,150,2013-12-04 04:53:00
9:53 PM,57.0,46.9,69,29.72,10.0,ESE,4.6,-,N/A,,Scattered Clouds,120,2013-12-04 05:53:00
10:10 PM,57.2,46.4,67,29.75,10.0,South,3.5,-,N/A,,Mostly Cloudy,180,2013-12-04 06:10:00
10:53 PM,55.9,39.9,55,29.73,10.0,Variable,5.8,-,N/A,,Overcast,0,2013-12-04 06:53:00
11:53 PM,54.0,36.0,51,29.74,10.0,West,5.8,-,N/A,,Scattered Clouds,280,2013-12-04 07:53:00